Stations météo

Publicité
Beauvais, France (7055): Température de l'air & dewpoint: 04.12.2019 19:00:00 - 10.12.2019 19:00:00 (CET)Beauvais, France (7055): Température de l'air 5cm: 04.12.2019 19:00:00 - 10.12.2019 19:00:00 (CET)Beauvais, France (7055): Température de l'air -20cm & Température de l'air -100cm: 04.12.2019 19:00:00 - 10.12.2019 19:00:00 (CET)Beauvais, France (7055): Vitesse du vent & gusts: 04.12.2019 19:00:00 - 10.12.2019 19:00:00 (CET)Beauvais, France (7055): Direction du vent: 04.12.2019 19:00:00 - 10.12.2019 19:00:00 (CET)Beauvais, France (7055): reduced air pressure: 04.12.2019 19:00:00 - 10.12.2019 19:00:00 (CET)Beauvais, France (7055): visibility: 04.12.2019 19:00:00 - 10.12.2019 19:00:00 (CET)Beauvais, France (7055): Ensoleillement: 04.12.2019 19:00:00 - 10.12.2019 19:00:00 (CET)Beauvais, France (7055): Quantités de précipitations: 04.12.2019 19:00:00 - 10.12.2019 19:00:00 (CET)
Date & Time tt [°C] td [°C] tt 5cm [°C] tt -20cm [°C] tt -100cm [°C] ff [km/h] ff [knt] fx [km/h] fx [knt] dd ppp [hPa] vv [km] sd [min] rr [mm]
10.12.2019 19:00:00 6,9 3,5 6,3 7,5 9,6 21 12 46 25 S 1017,6 20 0 0,0
10.12.2019 18:00:00 6,9 3,3 6,2 7,5 9,6 26 14 44 24 S 1018,3 20 0 0,0
10.12.2019 17:00:00 6,8 3,0 6,3 7,5 9,6 27 14 44 24 S 1019,0 19 0 0,0
10.12.2019 16:00:00 7,0 2,9 7,0 7,6 9,6 25 14 40 22 S 1020,3 20 0 0,0
10.12.2019 15:00:00 7,1 2,6 7,4 7,6 9,6 19 10 44 24 SSW 1021,8 20 0 0,0
10.12.2019 14:00:00 7,0 2,7 7,3 7,6 9,6 20 11 44 24 S 1022,9 19 8 0,0
10.12.2019 13:00:00 6,6 2,7 5,7 7,7 9,6 21 12 34 18 SSW 1024,4 20 7 0,0
10.12.2019 12:00:00 4,8 1,6 6,0 7,7 9,6 16 8 32 18 S 1025,3 17 33 0,0
10.12.2019 11:00:00 3,6 2,6 3,6 7,8 9,6 13 7 21 11 S 1026,4 15 60 0,0
10.12.2019 10:00:00 0,3 0,0 -3,1 7,8 9,6 8 4 11 6 SSE 1026,9 10 38 0,0
10.12.2019 09:00:00 -1,5 -1,9 -6,4 7,9 9,6 6 3 8 5 SSE 1027,4 7 0 0,0
10.12.2019 08:00:00 -2,4 -3,0 -6,9 7,9 9,6 3 1 8 5 S 1027,9 1,8 0 0,0
10.12.2019 07:00:00 -2,0 -2,6 -6,9 8,0 9,6 4 2 6 3 ESE 1028,1 1,1 0 0,0
10.12.2019 06:00:00 -1,7 -2,3 -6,4 8,0 9,6 3 1 7 4 E 1028,3 3,6 0 0,0
10.12.2019 05:00:00 -2,2 -2,9 -7,0 8,1 9,6 5 3 7 4 SE 1028,4 1,9 0 0,0
10.12.2019 04:00:00 -1,6 -2,3 -6,3 8,1 9,6 0 0 4 2 N 1028,2 12 0 0,0
10.12.2019 03:00:00 -1,6 -2,4 -6,5 8,1 9,6 2 1 8 4 W 1028,3 7 0 0,0
10.12.2019 02:00:00 -1,5 -2,5 -5,7 8,1 9,6 5 3 7 4 WNW 1027,5 16 0 0,0
10.12.2019 01:00:00 -0,2 -1,2 -4,7 8,2 9,6 5 3 12 6 W 1027,4 19 0 0,0
10.12.2019 00:00:00 1,4 -0,2 -4,0 8,1 9,6 5 3 12 7 NW 1026,9 45 0 0,0
09.12.2019 23:00:00 0,3 -1,8 -2,4 8,1 9,5 13 7 16 9 NW 1025,8 52 0 0,0
09.12.2019 22:00:00 2,5 -0,1 -1,3 8,2 9,6 9 5 23 12 WNW 1025,0 58 0 0,0
09.12.2019 21:00:00 2,7 0,1 0,3 8,2 9,5 16 9 24 13 NW 1024,3 58 0 0,0
09.12.2019 20:00:00 3,4 -0,1 1,2 8,1 9,5 16 9 29 16 NW 1023,1 56 0 0,0
09.12.2019 19:00:00 5,8 0,7 3,8 8,1 9,5 20 11 37 20 NNW 1021,4 57 0 0,0
09.12.2019 18:00:00 6,4 0,7 4,7 8,1 9,5 22 12 35 19 NW 1019,7 60 0 0,0
09.12.2019 17:00:00 7,1 0,7 5,4 8,1 9,5 29 15 60 33 NNW 1017,8 59 0 0,0
09.12.2019 16:00:00 8,5 2,5 7,7 8,1 9,5 28 15 53 28 NW 1015,5 33 17 0,0
09.12.2019 15:00:00 8,9 3,7 6,7 8,1 9,5 34 18 66 36 NW 1013,5 30 34 0,2
09.12.2019 14:00:00 7,9 4,8 7,0 8,2 9,5 29 16 66 36 NW 1011,8 15 3 0,2
09.12.2019 13:00:00 8,4 5,1 6,8 8,2 9,5 40 22 61 33 NW 1009,7 17 6 0,2
09.12.2019 12:00:00 7,2 5,3 6,5 8,1 9,5 42 23 64 35 NW 1008,0 3,9 5 1,4
09.12.2019 11:00:00 7,8 5,6 6,7 8,1 9,5 37 20 74 40 WNW 1005,9 14 9 0,8
09.12.2019 10:00:00 7,8 6,3 6,9 8,2 9,5 39 21 71 38 NW 1002,9 19 1 1,6
09.12.2019 09:00:00 7,1 6,2 6,1 8,2 9,5 23 12 50 27 WSW 1000,4 9 0 0,8
09.12.2019 08:00:00 6,6 5,5 5,9 8,2 9,5 26 14 45 24 SW 999,7 13 0 0,7
09.12.2019 07:00:00 6,6 5,4 5,8 8,2 9,5 21 12 40 21 SW 1000,0 12 0 2,4
09.12.2019 06:00:00 6,4 5,0 5,5 8,2 9,5 19 11 76 41 W 1000,4 6 0 3,4
09.12.2019 05:00:00 7,5 4,4 5,8 8,1 9,5 41 22 74 40 SW 1000,0 16 0 0,0
09.12.2019 04:00:00 7,1 4,4 5,9 8,2 9,5 36 19 70 38 WSW 1000,2 18 0 0,0
09.12.2019 03:00:00 7,5 3,9 5,4 8,2 9,5 39 21 63 34 SW 1000,4 54 0 0,0
09.12.2019 02:00:00 6,9 3,9 5,4 8,1 9,4 36 19 67 36 SW 1001,2 41 0 0,2
09.12.2019 01:00:00 7,2 3,6 5,9 8,1 9,4 32 17 58 32 SSW 1002,7 20 0 0,0
09.12.2019 00:00:00 7,6 3,3 5,5 8,1 9,5 36 19 56 30 SW 1003,7 60 0 0,0
08.12.2019 23:00:00 7,7 3,7 5,7 8,1 9,4 30 16 46 25 SW 1004,4 49 0 0,0
08.12.2019 22:00:00 8,0 4,6 5,9 8,1 9,4 29 16 51 28 SW 1004,7 43 0 0,0
08.12.2019 21:00:00 7,7 4,5 5,5 8,0 9,4 23 12 42 23 WSW 1005,4 50 0 0,0
08.12.2019 20:00:00 7,4 4,4 5,5 8,0 9,4 22 12 44 24 SW 1005,8 60 0 0,0
08.12.2019 19:00:00 8,2 5,3 6,8 8,0 9,4 36 19 62 34 W 1006,0 8 0 0,6
08.12.2019 18:00:00 9,3 5,8 6,8 8,0 9,4 23 13 38 21 SW 1005,7 16 0 0,0
08.12.2019 17:00:00 9,0 7,0 7,1 7,9 9,4 17 9 34 18 WSW 1006,3 13 0 0,0
08.12.2019 16:00:00 9,4 7,2 8,5 7,9 9,4 20 11 48 26 W 1006,6 6 7 0,6
08.12.2019 15:00:00 11,4 6,3 12,2 7,9 9,4 25 13 42 23 W 1006,6 17 55 0,0
08.12.2019 14:00:00 11,0 7,1 11,0 7,9 9,4 23 13 46 25 W 1007,1 14 14 0,0
08.12.2019 13:00:00 10,9 7,2 10,9 7,8 9,4 31 17 49 26 W 1007,6 17 0 0,0
08.12.2019 12:00:00 10,9 8,8 10,1 7,8 9,4 22 12 61 33 W 1007,8 50 0 0,6
08.12.2019 11:00:00 11,4 10,6 10,4 7,8 9,4 23 13 46 25 SW 1007,4 9 0 0,0
08.12.2019 10:00:00 10,8 9,9 9,6 7,7 9,4 26 14 44 24 SW 1007,3 11 0 0,0
08.12.2019 09:00:00 10,2 9,1 9,1 7,7 9,4 24 13 45 24 SW 1007,7 14 0 0,6
08.12.2019 08:00:00 9,7 8,6 8,7 7,7 9,4 29 15 49 26 SSW 1007,6 7 0 1,6
08.12.2019 07:00:00 9,7 7,8 8,7 7,7 9,4 25 14 55 30 SSW 1008,6 12 0 0,4
08.12.2019 06:00:00 9,9 6,8 9,1 7,7 9,4 31 17 58 31 SW 1009,1 60 0 0,0
08.12.2019 05:00:00 10,0 6,9 9,2 7,6 9,4 33 18 56 30 SW 1009,5 60 0 0,0
08.12.2019 04:00:00 10,0 6,5 9,3 7,6 9,4 16 9 44 24 SSW 1011,0 60 0 0,0
08.12.2019 03:00:00 10,1 6,4 9,4 7,6 9,4 32 17 51 28 SW 1012,3 60 0 0,0
08.12.2019 02:00:00 10,1 7,7 9,3 7,6 9,4 24 13 39 21 SSW 1012,9 58 0 0,0
08.12.2019 01:00:00 9,8 7,9 8,8 7,5 9,4 23 12 37 20 SSW 1014,0 45 0 0,0
08.12.2019 00:00:00 9,4 7,3 8,7 7,5 9,4 17 9 26 14 S 1015,2 47 0 0,0
07.12.2019 23:00:00 9,4 6,7 8,7 7,5 9,4 13 7 32 18 SSW 1016,3 60 0 0,0
07.12.2019 22:00:00 9,5 6,9 8,8 7,4 9,4 19 10 30 16 SW 1016,9 60 0 0,0
07.12.2019 21:00:00 9,4 7,2 8,6 7,4 9,4 15 8 23 12 SSW 1017,3 47 0 0,0
07.12.2019 20:00:00 9,4 6,8 8,6 7,4 9,4 11 6 17 9 SSW 1017,5 48 0 0,0
07.12.2019 19:00:00 9,5 7,3 8,5 7,4 9,4 12 6 19 10 SSW 1017,9 49 0 0,0
07.12.2019 18:00:00 9,6 7,2 8,7 7,3 9,4 14 7 20 11 SSW 1017,7 54 0 0,0
07.12.2019 17:00:00 9,7 7,0 8,9 7,3 9,4 9 5 24 13 SW 1017,8 51 0 0,0
07.12.2019 16:00:00 10,1 7,2 9,9 7,2 9,4 12 7 22 12 SSW 1017,7 49 0 0,0
07.12.2019 15:00:00 10,4 7,1 10,9 7,2 9,4 11 6 22 12 WSW 1017,6 51 0 0,0
07.12.2019 14:00:00 10,4 8,0 10,9 7,2 9,5 15 8 27 15 WSW 1017,6 19 0 0,0
07.12.2019 13:00:00 10,2 8,0 11,7 7,2 9,4 16 9 29 16 WSW 1017,7 19 4 0,0
07.12.2019 12:00:00 9,7 8,0 11,1 7,2 9,4 17 9 31 17 W 1017,8 18 1 0,0
07.12.2019 11:00:00 9,1 7,9 8,6 7,1 9,4 11 6 22 12 WSW 1018,0 15 3 0,0
07.12.2019 10:00:00 8,6 7,4 7,7 7,1 9,4 16 9 27 14 SW 1017,6 14 14 0,0
07.12.2019 09:00:00 8,4 7,2 7,5 7,1 9,5 8 5 21 12 WSW 1017,0 13 0 0,0
07.12.2019 08:00:00 8,5 7,3 6,8 7,1 9,5 13 7 22 12 WSW 1016,6 14 0 0,0
07.12.2019 07:00:00 8,0 6,8 6,0 7,0 9,5 13 7 23 12 WSW 1016,1 14 0 0,0
07.12.2019 06:00:00 8,3 7,2 5,7 7,0 9,5 16 8 24 13 WSW 1015,5 15 0 0,0
07.12.2019 05:00:00 7,7 6,6 5,1 7,0 9,5 16 8 25 14 W 1015,1 14 0 0,0
07.12.2019 04:00:00 8,1 7,0 5,4 6,9 9,4 14 7 26 14 WSW 1014,6 17 0 0,0
07.12.2019 03:00:00 8,2 7,1 5,6 6,9 9,5 14 8 23 12 WSW 1013,9 17 0 0,2
07.12.2019 02:00:00 8,4 7,0 5,5 6,9 9,5 10 5 34 19 WSW 1013,6 18 0 0,0
07.12.2019 01:00:00 9,5 8,1 8,2 6,9 9,5 19 10 31 17 WSW 1013,2 14 0 0,0
07.12.2019 00:00:00 9,6 8,2 7,3 6,9 9,5 21 11 36 19 WSW 1012,9 19 0 0,0
06.12.2019 23:00:00 9,5 7,8 7,2 6,9 9,5 16 9 38 20 WSW 1012,2 50 0 0,0
06.12.2019 22:00:00 9,8 8,2 8,5 6,8 9,5 24 13 46 25 WSW 1011,4 59 0 0,0
06.12.2019 21:00:00 9,9 8,5 8,7 6,8 9,5 27 15 52 28 WSW 1010,7 46 0 0,0
06.12.2019 20:00:00 9,4 8,3 8,0 6,8 9,5 27 14 49 26 SW 1010,4 10 0 0,0
06.12.2019 19:00:00 8,5 7,6 7,5 6,8 9,6 26 14 44 24 SW 1010,2 13 0 0,0
06.12.2019 18:00:00 8,1 7,0 7,1 6,8 9,5 27 15 45 25 SSW 1010,5 8 0 0,0
06.12.2019 17:00:00 7,6 6,7 6,4 6,8 9,6 22 12 47 25 SSW 1011,0 12 0 0,0
06.12.2019 16:00:00 6,8 5,7 6,3 6,8 9,6 31 17 49 27 SW 1011,7 13 0 0,0
06.12.2019 15:00:00 6,7 5,3 6,1 6,8 9,6 25 14 53 29 SW 1011,9 19 0 0,0
06.12.2019 14:00:00 6,1 5,2 5,5 6,8 9,6 24 13 40 21 SW 1012,8 19 0 0,4
06.12.2019 13:00:00 5,5 4,8 5,0 6,8 9,6 17 9 39 21 SSW 1014,3 19 0 0,8
06.12.2019 12:00:00 5,2 4,5 5,1 6,7 9,6 21 11 38 20 SW 1015,2 8 0 1,0
06.12.2019 11:00:00 5,0 4,3 4,6 6,7 9,6 23 12 35 19 SSW 1016,1 8 0 0,4
06.12.2019 10:00:00 4,6 4,0 3,9 6,8 9,6 18 10 32 17 SSW 1016,5 7 0 1,0
06.12.2019 09:00:00 4,0 3,4 3,1 6,8 9,6 19 11 29 15 SSW 1016,8 6 0 0,4
06.12.2019 08:00:00 3,4 2,8 2,8 6,8 9,6 12 7 23 12 SSW 1017,2 7 0 0,0
06.12.2019 07:00:00 2,8 2,4 2,5 6,8 9,6 12 6 27 15 S 1017,5 7 0 0,0
06.12.2019 06:00:00 2,3 2,0 2,1 6,8 9,6 18 10 29 16 SSW 1017,5 7 0 0,0
06.12.2019 05:00:00 1,9 1,8 1,6 6,8 9,6 14 8 29 15 SSW 1018,1 6 0 0,0
06.12.2019 04:00:00 1,4 1,3 1,3 6,8 9,7 12 7 25 14 SSW 1019,0 5 0 0,0
06.12.2019 03:00:00 1,0 0,9 1,2 6,8 9,7 18 10 27 15 S 1019,5 3,9 0 0,0
06.12.2019 02:00:00 1,0 0,9 1,1 6,8 9,7 12 7 24 13 SSW 1020,3 3,1 0 0,0
06.12.2019 01:00:00 1,0 0,9 1,2 6,8 9,7 9 5 25 13 S 1020,7 1,9 0 0,0
06.12.2019 00:00:00 1,0 0,9 1,0 6,8 9,7 12 7 19 10 SSW 1021,8 3,1 0 0,0
05.12.2019 23:00:00 1,0 0,9 0,7 6,8 9,7 8 4 16 9 S 1022,0 2,3 0 0,0
05.12.2019 22:00:00 0,5 0,4 0,6 6,8 9,7 13 7 18 10 SSW 1022,7 0,7 0 0,0
05.12.2019 21:00:00 0,4 0,3 0,6 6,8 9,7 12 6 19 10 SSW 1022,6 0,6 0 0,0
05.12.2019 20:00:00 0,7 0,6 0,8 6,8 9,7 12 6 20 11 S 1022,5 1,5 0 0,0
05.12.2019 19:00:00 1,0 0,9 1,1 6,8 9,7 11 6 22 12 S 1023,0 0,6 0 0,0
05.12.2019 18:00:00 1,6 1,5 1,8 6,8 9,7 13 7 18 10 S 1023,0 1,6 0 0,0
05.12.2019 17:00:00 2,0 1,9 2,4 6,8 9,8 9 5 15 8 SSW 1023,4 1,9 0 0,0
05.12.2019 16:00:00 1,9 1,8 2,6 6,8 9,7 11 6 16 9 SSW 1023,5 0,8 0 0,0
05.12.2019 15:00:00 2,2 2,1 3,8 6,8 9,8 8 5 19 10 WSW 1023,6 0,6 0 0,0
05.12.2019 14:00:00 1,8 1,7 3,6 6,8 9,8 11 6 18 10 SSW 1023,7 0,4 0 0,0
05.12.2019 13:00:00 1,6 1,5 3,2 6,8 9,8 9 5 15 8 WSW 1023,9 0,8 0 0,0
05.12.2019 12:00:00 0,8 0,7 1,9 6,8 9,8 8 4 14 8 SW 1024,4 0,2 0 0,0
05.12.2019 11:00:00 0,3 0,2 1,1 6,8 9,8 8 4 13 7 SSW 1024,7 0,1 0 0,0
05.12.2019 10:00:00 -0,1 -0,2 0,2 6,8 9,8 9 5 13 7 WSW 1024,6 0,2 0 0,0
05.12.2019 09:00:00 -0,2 -0,3 0,1 6,8 9,8 3 2 10 5 W 1024,1 0,1 0 0,0
05.12.2019 08:00:00 -0,3 -0,4 -0,2 6,8 9,8 6 3 9 5 W 1023,5 0,2 0 0,0
05.12.2019 07:00:00 -0,7 -0,8 -0,6 6,9 9,8 0 0 8 4 N 1023,0 0,2 0 0,0
05.12.2019 06:00:00 -0,9 -1,0 -1,0 6,9 9,9 6 3 14 8 WNW 1022,7 0,2 0 0,0
05.12.2019 05:00:00 -1,4 -1,5 -1,2 6,9 9,9 10 6 26 14 WNW 1023,0 0,5 0 0,0
05.12.2019 04:00:00 -1,6 -1,7 -1,2 6,9 9,9 10 6 17 9 W 1023,0 0,2 0 0,0
05.12.2019 03:00:00 -1,6 -1,7 -1,1 6,9 9,9 9 5 15 8 W 1022,7 0,2 0 0,0
05.12.2019 02:00:00 -1,7 -1,8 -1,1 6,9 9,9 8 4 13 7 W 1022,1 0,1 0 0,0
05.12.2019 01:00:00 -1,4 -1,5 -0,9 6,9 9,9 6 4 11 6 WNW 1022,0 0,1 0 0,0
05.12.2019 00:00:00 -0,9 -1,0 -0,5 6,9 9,9 5 3 13 7 W 1022,1 0,1 0 0,0
04.12.2019 23:00:00 -0,8 -0,9 -0,2 6,9 9,9 6 3 14 7 NW 1022,0 0,1 0 0,0
04.12.2019 22:00:00 -0,4 -0,5 0,1 6,9 9,9 6 3 9 5 NW 1022,0 0,1 0 0,0
04.12.2019 21:00:00 -0,3 -0,4 -0,3 6,9 10,0 5 3 8 5 WSW 1021,9 0,1 0 0,0
04.12.2019 20:00:00 -0,6 -0,7 -0,4 6,9 10,0 2 1 5 3 SSE 1021,2 0,1 0 0,0
04.12.2019 19:00:00 -0,5 -0,6 -0,1 6,9 10,0 3 2 9 5 NW 1020,9 0,1 0 0,0

tt = Température de l'air
td = dewpoint
tt 5cm = Température de l'air 5cm
tt -20cm = Température de l'air -20cm
tt -100cm = Température de l'air -100cm
ff = Vitesse du vent
fx = gusts
dd = Direction du vent
ppp = reduced air pressure
vv = visibility
sd = Ensoleillement
rr = Quantités de précipitations

stations d'obs. à proximité